User: anonymous   Login
Location: Montr�al
(45.5000°N, 73.5830°W)
Time: 06:08:53
(UTC-04:00)
Language:

Cosmos 2369 - Orbit

View from above orbital plane
View from above orbital plane
View from above satellite
View from above satellite

Ground track
Ground track

The orbit data is extracted from the following two-line orbital elements,

1 26069U 00006A   14295.38893800  .00000492  00000-0  28760-3 0  3815
2 26069 070.9958 228.4392 0012753 259.2360 239.7765 14.13246276759240
Epoch (UTC): 22 October 2014 09:20:04
Eccentricity: 0.0012753
inclination: 70.9958°
perigee height: 839 km
apogee height: 857 km
right ascension of ascending node: 228.4392°
argument of perigee: 259.2360°
revolutions per day: 14.13246276
mean anomaly at epoch: 239.7765°
orbit number at epoch: 75924

The dashed part of the orbit path shows where the satellite is in the earth's shadow,  

DLR